START_TIME,STEP,MOV.,H8,t_acc.,H43,t_acc.,M25,t_acc.,H9,t_acc.
1986-01-25 15:00:30.880 ,7,0,0.,12.0,0.,12.0,0.,12.0,0.,12.0
1986-01-25 15:00:42.880 ,7,0,0.,12.0,0.,12.0,0.,12.0,0.,12.0
1986-01-25 15:00:54.880 ,6,0,0.,12.0,0.,12.0,0.,12.0,0.,12.0
1986-01-25 15:01:06.880 ,6,0,0.,12.0,0.,12.0,0.,12.0,0.,12.0
1986-01-25 15:01:18.880 ,6,0,0.,12.0,0.,12.0,0.,12.0,0.,12.0
1986-01-25 15:01:30.880 ,6,0,0.,12.0,0.,12.0,0.,12.0,0.,12.0
1986-01-25 15:01:42.880 ,5,0,0.,12.0,0.,12.0,0.,12.0,0.,12.0
1986-01-25 15:01:54.880 ,5,0,0.,12.0,0.,12.0,0.,12.0,0.,12.0
1986-01-25 15:02:06.880 ,5,0,0.,12.0,0.,12.0,0.,12.0,0.,12.0
1986-01-25 15:02:18.880 ,5,0,0.,12.0,0.,12.0,0.,12.0,0.,12.0
1986-01-25 15:02:30.880 ,4,0,0.,12.0,0.,12.0,0.,12.0,0.,12.0
1986-01-25 15:02:42.880 ,4,0,0.,12.0,0.,12.0,0.,12.0,0.,12.0
1986-01-25 15:02:54.880 ,4,0,0.,12.0,0.,12.0,0.,12.0,0.,12.0
1986-01-25 15:03:06.880 ,4,0,0.,12.0,1.,12.0,0.,12.0,0.,12.0
1986-01-25 15:03:18.880 ,3,0,0.,12.0,0.,12.0,0.,12.0,0.,12.0
1986-01-25 15:03:30.880 ,3,0,0.,12.0,0.,12.0,0.,12.0,0.,12.0
1986-01-25 15:03:42.880 ,3,0,0.,12.0,0.,12.0,0.,12.0,0.,12.0
1986-01-25 15:03:54.880 ,3,0,0.,12.0,0.,12.0,0.,12.0,0.,12.0
1986-01-25 15:04:06.880 ,2,0,0.,12.0,0.,12.0,0.,12.0,0.,12.0
1986-01-25 15:04:18.880 ,2,0,0.,12.0,0.,12.0,0.,12.0,0.,12.0
1986-01-25 15:04:30.880 ,2,0,0.,12.0,0.,12.0,0.,12.0,0.,12.0
1986-01-25 15:04:42.880 ,2,0,0.,12.0,0.,12.0,0.,12.0,0.,12.0
1986-01-25 15:04:54.880 ,1,0,0.,12.0,0.,12.0,0.,12.0,0.,12.0
1986-01-25 15:05:06.880 ,1,0,0.,12.0,0.,12.0,0.,12.0,0.,12.0
1986-01-25 15:05:18.880 ,1,0,0.,12.0,0.,12.0,0.,12.0,0.,12.0
1986-01-25 15:05:30.880 ,1,0,0.,12.0,0.,12.0,0.,12.0,0.,12.0
1986-01-25 15:05:42.880 ,0,0,0.,12.0,0.,12.0,0.,12.0,0.,12.0
1986-01-25 15:05:54.880 ,0,0,0.,12.0,0.,12.0,0.,12.0,0.,12.0
1986-01-25 15:06:06.880 ,0,0,0.,12.0,0.,12.0,0.,12.0,0.,12.0
1986-01-25 15:06:18.880 ,0,0,0.,12.0,0.,12.0,0.,12.0,0.,12.0
1986-01-25 15:06:30.880 ,0,0,0.,12.0,0.,12.0,0.,12.0,0.,12.0
1986-01-25 15:06:42.880 ,0,0,0.,12.0,0.,12.0,0.,12.0,0.,12.0
1986-01-25 15:06:54.880 ,0,0,0.,12.0,0.,12.0,0.,12.0,0.,12.0
1986-01-25 15:07:06.880 ,0,0,0.,12.0,0.,12.0,0.,12.0,0.,12.0
1986-01-25 15:07:18.880 ,1,0,0.,12.0,0.,12.0,0.,12.0,0.,12.0
1986-01-25 15:07:30.880 ,1,0,0.,12.0,0.,12.0,0.,12.0,0.,12.0
1986-01-25 15:07:42.880 ,1,0,0.,12.0,0.,12.0,0.,12.0,0.,12.0
1986-01-25 15:07:54.880 ,1,0,0.,12.0,0.,12.0,0.,12.0,0.,12.0
1986-01-25 15:08:06.880 ,2,0,0.,12.0,0.,12.0,0.,12.0,0.,12.0
1986-01-25 15:08:18.880 ,2,0,0.,12.0,0.,12.0,0.,12.0,0.,12.0
1986-01-25 15:08:30.880 ,2,0,0.,12.0,0.,12.0,0.,12.0,0.,12.0
1986-01-25 15:08:42.880 ,2,0,0.,12.0,0.,12.0,0.,12.0,0.,12.0
1986-01-25 15:08:54.880 ,3,0,0.,12.0,0.,12.0,0.,12.0,0.,12.0
1986-01-25 15:09:06.880 ,3,0,0.,12.0,0.,12.0,0.,12.0,0.,12.0
1986-01-25 15:09:18.880 ,3,0,0.,12.0,0.,12.0,0.,12.0,0.,12.0
1986-01-25 15:09:30.880 ,3,0,0.,12.0,0.,12.0,0.,12.0,0.,12.0
1986-01-25 15:09:42.880 ,4,0,0.,12.0,0.,12.0,0.,12.0,0.,12.0
1986-01-25 15:09:54.880 ,4,0,0.,12.0,0.,12.0,0.,12.0,0.,12.0
1986-01-25 15:10:06.880 ,4,0,0.,12.0,0.,12.0,0.,12.0,0.,12.0
1986-01-25 15:10:18.880 ,4,0,0.,12.0,0.,12.0,0.,12.0,0.,12.0
1986-01-25 15:10:30.880 ,5,0,0.,12.0,0.,12.0,0.,12.0,0.,12.0
1986-01-25 15:10:42.880 ,5,0,0.,12.0,0.,12.0,0.,12.0,0.,12.0
1986-01-25 15:10:54.880 ,5,0,0.,12.0,0.,12.0,0.,12.0,0.,12.0
1986-01-25 15:11:06.880 ,5,0,0.,12.0,0.,12.0,0.,12.0,0.,12.0
1986-01-25 15:11:18.880 ,6,0,0.,12.0,1.,12.0,0.,12.0,0.,12.0
1986-01-25 15:11:30.880 ,6,0,0.,12.0,0.,12.0,0.,12.0,0.,12.0
1986-01-25 15:11:42.880 ,6,0,0.,12.0,0.,12.0,0.,12.0,0.,12.0
1986-01-25 15:11:54.880 ,6,0,0.,12.0,0.,12.0,0.,12.0,0.,12.0
1986-01-25 15:12:06.880 ,7,0,0.,12.0,0.,12.0,0.,12.0,0.,12.0
1986-01-25 15:12:18.880 ,7,0,0.,12.0,0.,12.0,0.,12.0,0.,12.0
1986-01-25 15:12:30.880 ,7,0,0.,12.0,0.,12.0,0.,12.0,0.,12.0
1986-01-25 15:12:42.880 ,7,0,0.,12.0,0.,12.0,0.,12.0,0.,12.0
1986-01-25 15:12:54.880 ,7,0,0.,12.0,0.,12.0,0.,12.0,0.,12.0
1986-01-25 15:13:06.880 ,7,0,0.,12.0,0.,12.0,0.,12.0,0.,12.0
1986-01-25 15:13:18.880 ,7,0,0.,12.0,0.,12.0,0.,12.0,0.,12.0
1986-01-25 15:13:30.880 ,7,0,0.,12.0,0.,12.0,0.,12.0,0.,12.0
1986-01-25 15:13:42.880 ,6,0,0.,12.0,0.,12.0,0.,12.0,0.,12.0
1986-01-25 15:13:54.880 ,6,0,0.,12.0,0.,12.0,0.,12.0,0.,12.0
1986-01-25 15:14:06.880 ,6,0,0.,12.0,0.,12.0,0.,12.0,0.,12.0
1986-01-25 15:14:18.880 ,6,0,0.,12.0,0.,12.0,0.,12.0,0.,12.0
1986-01-25 15:14:30.880 ,5,0,0.,12.0,0.,12.0,0.,12.0,0.,12.0
1986-01-25 15:14:42.880 ,5,0,0.,12.0,0.,12.0,0.,12.0,0.,12.0
1986-01-25 15:14:54.880 ,5,0,0.,12.0,0.,12.0,0.,12.0,0.,12.0
1986-01-25 15:15:06.880 ,5,0,0.,12.0,0.,12.0,0.,12.0,0.,12.0
1986-01-25 15:15:18.880 ,4,0,0.,12.0,0.,12.0,0.,12.0,0.,12.0
1986-01-25 15:15:30.880 ,4,0,0.,12.0,0.,12.0,0.,12.0,0.,12.0
1986-01-25 15:15:42.880 ,4,0,0.,12.0,0.,12.0,0.,12.0,0.,12.0
1986-01-25 15:15:54.880 ,4,0,0.,12.0,0.,12.0,0.,12.0,0.,12.0
1986-01-25 15:16:06.880 ,3,0,0.,12.0,0.,12.0,0.,12.0,0.,12.0
1986-01-25 15:16:18.880 ,3,0,0.,12.0,0.,12.0,0.,12.0,0.,12.0
1986-01-25 15:16:30.880 ,3,0,0.,12.0,0.,12.0,0.,12.0,0.,12.0
1986-01-25 15:16:42.880 ,3,0,0.,12.0,0.,12.0,0.,12.0,0.,12.0
1986-01-25 15:16:54.880 ,2,0,0.,12.0,0.,12.0,0.,12.0,0.,12.0
1986-01-25 15:17:06.880 ,2,0,0.,12.0,0.,12.0,0.,12.0,0.,12.0
1986-01-25 15:17:18.880 ,2,0,0.,12.0,0.,12.0,0.,12.0,0.,12.0
1986-01-25 15:17:30.880 ,2,0,0.,12.0,0.,12.0,0.,12.0,0.,12.0
1986-01-25 15:17:42.880 ,1,0,0.,12.0,0.,12.0,0.,12.0,0.,12.0
1986-01-25 15:17:54.880 ,1,0,0.,12.0,0.,12.0,0.,12.0,0.,12.0
1986-01-25 15:18:06.880 ,1,0,0.,12.0,0.,12.0,0.,12.0,0.,12.0
1986-01-25 15:18:18.880 ,1,0,0.,12.0,0.,12.0,0.,12.0,0.,12.0
1986-01-25 15:18:30.880 ,0,0,0.,12.0,0.,12.0,0.,12.0,0.,12.0
1986-01-25 15:18:42.880 ,0,0,0.,12.0,0.,12.0,0.,12.0,0.,12.0
1986-01-25 15:18:54.880 ,0,0,0.,12.0,0.,12.0,0.,12.0,0.,12.0
1986-01-25 15:19:06.880 ,0,0,0.,12.0,0.,12.0,0.,12.0,0.,12.0
1986-01-25 15:19:18.880 ,0,0,0.,12.0,0.,12.0,0.,12.0,0.,12.0
1986-01-25 15:19:30.880 ,0,0,0.,12.0,0.,12.0,0.,12.0,0.,12.0
1986-01-25 15:19:42.880 ,0,0,0.,12.0,0.,12.0,0.,12.0,0.,12.0
1986-01-25 15:19:54.880 ,0,0,0.,12.0,0.,12.0,0.,12.0,0.,12.0
1986-01-25 15:20:06.880 ,1,0,0.,12.0,0.,12.0,0.,12.0,0.,12.0
1986-01-25 15:20:18.880 ,1,0,0.,12.0,0.,12.0,0.,12.0,0.,12.0
1986-01-25 15:20:30.880 ,1,0,0.,12.0,0.,12.0,0.,12.0,0.,12.0
1986-01-25 15:20:42.880 ,1,0,0.,12.0,0.,12.0,0.,12.0,0.,12.0
1986-01-25 15:20:54.880 ,2,0,0.,12.0,0.,12.0,0.,12.0,0.,12.0
1986-01-25 15:21:06.880 ,2,0,0.,12.0,0.,12.0,0.,12.0,0.,12.0
1986-01-25 15:21:18.880 ,2,0,0.,12.0,0.,12.0,0.,12.0,0.,12.0
1986-01-25 15:21:30.880 ,2,0,0.,12.0,0.,12.0,0.,12.0,0.,12.0
1986-01-25 15:21:42.880 ,3,0,0.,12.0,0.,12.0,0.,12.0,0.,12.0
1986-01-25 15:21:54.880 ,3,0,0.,12.0,0.,12.0,0.,12.0,0.,12.0
1986-01-25 15:22:06.880 ,3,0,0.,12.0,0.,12.0,0.,12.0,0.,12.0
1986-01-25 15:22:18.880 ,3,0,0.,12.0,0.,12.0,0.,12.0,0.,12.0
1986-01-25 15:22:30.880 ,4,0,0.,12.0,0.,12.0,0.,12.0,0.,12.0
1986-01-25 15:22:42.880 ,4,0,0.,12.0,0.,12.0,0.,12.0,0.,12.0
1986-01-25 15:22:54.880 ,4,0,0.,12.0,0.,12.0,0.,12.0,0.,12.0
1986-01-25 15:23:06.880 ,4,0,0.,12.0,0.,12.0,0.,12.0,0.,12.0
1986-01-25 15:23:18.880 ,5,0,0.,12.0,0.,12.0,0.,12.0,0.,12.0
1986-01-25 15:23:30.880 ,5,0,0.,12.0,0.,12.0,0.,12.0,0.,12.0
1986-01-25 15:23:42.880 ,5,0,0.,12.0,0.,12.0,0.,12.0,0.,12.0
1986-01-25 15:23:54.880 ,5,0,0.,12.0,0.,12.0,0.,12.0,0.,12.0
1986-01-25 15:24:06.880 ,6,0,0.,12.0,0.,12.0,0.,12.0,0.,12.0
1986-01-25 15:24:18.880 ,6,0,0.,12.0,0.,12.0,0.,12.0,0.,12.0
1986-01-25 15:24:30.880 ,6,0,0.,12.0,0.,12.0,0.,12.0,0.,12.0
1986-01-25 15:24:42.880 ,6,0,0.,12.0,0.,12.0,0.,12.0,0.,12.0
1986-01-25 15:24:54.880 ,7,0,0.,12.0,0.,12.0,0.,12.0,0.,12.0
1986-01-25 15:25:06.880 ,7,0,0.,12.0,0.,12.0,0.,12.0,0.,12.0
1986-01-25 15:25:18.880 ,7,0,0.,12.0,0.,12.0,0.,12.0,0.,12.0
1986-01-25 15:25:30.880 ,7,0,0.,12.0,0.,12.0,0.,12.0,0.,12.0
1986-01-25 15:25:42.880 ,7,0,0.,12.0,0.,12.0,0.,12.0,0.,12.0
1986-01-25 15:25:54.880 ,7,0,0.,12.0,0.,12.0,0.,12.0,0.,12.0
1986-01-25 15:26:06.880 ,7,0,0.,12.0,0.,12.0,0.,12.0,0.,12.0
1986-01-25 15:26:18.880 ,7,0,0.,12.0,0.,12.0,0.,12.0,0.,12.0
1986-01-25 15:26:30.880 ,6,0,0.,12.0,0.,12.0,0.,12.0,0.,12.0
1986-01-25 15:26:42.880 ,6,0,0.,12.0,0.,12.0,0.,12.0,0.,12.0
1986-01-25 15:26:54.880 ,6,0,0.,12.0,0.,12.0,0.,12.0,0.,12.0
1986-01-25 15:27:06.880 ,6,0,0.,12.0,0.,12.0,0.,12.0,0.,12.0
1986-01-25 15:27:18.880 ,5,0,0.,12.0,0.,12.0,0.,12.0,0.,12.0
1986-01-25 15:27:30.880 ,5,0,0.,12.0,0.,12.0,0.,12.0,0.,12.0
1986-01-25 15:27:42.880 ,5,0,0.,12.0,0.,12.0,0.,12.0,0.,12.0
1986-01-25 15:27:54.880 ,5,0,0.,12.0,0.,12.0,0.,12.0,0.,12.0
1986-01-25 15:28:06.880 ,4,0,0.,12.0,0.,12.0,0.,12.0,0.,12.0
1986-01-25 15:28:18.880 ,4,0,0.,12.0,0.,12.0,0.,12.0,0.,12.0
1986-01-25 15:28:30.880 ,4,0,0.,12.0,0.,12.0,0.,12.0,0.,12.0
1986-01-25 15:28:42.880 ,4,0,0.,12.0,0.,12.0,0.,12.0,0.,12.0
1986-01-25 15:28:54.880 ,3,0,0.,12.0,0.,12.0,0.,12.0,0.,12.0
1986-01-25 15:29:06.880 ,3,0,0.,12.0,0.,12.0,0.,12.0,0.,12.0
1986-01-25 15:29:18.880 ,3,0,0.,12.0,0.,12.0,0.,12.0,0.,12.0
1986-01-25 15:29:30.880 ,3,0,0.,12.0,0.,12.0,0.,12.0,0.,12.0
1986-01-25 15:29:42.880 ,2,0,0.,12.0,0.,12.0,0.,12.0,0.,12.0
1986-01-25 15:29:54.880 ,2,0,0.,12.0,0.,12.0,0.,12.0,0.,12.0
1986-01-25 15:30:06.880 ,2,0,0.,12.0,0.,12.0,0.,12.0,0.,12.0
1986-01-25 15:30:18.880 ,2,0,0.,12.0,0.,12.0,0.,12.0,0.,12.0
1986-01-25 15:30:30.880 ,1,0,0.,12.0,0.,12.0,0.,12.0,0.,12.0
1986-01-25 15:30:42.880 ,1,0,0.,12.0,0.,12.0,0.,12.0,0.,12.0
1986-01-25 15:30:54.880 ,1,0,0.,12.0,0.,12.0,0.,12.0,0.,12.0
1986-01-25 15:31:06.880 ,1,0,0.,12.0,0.,12.0,0.,12.0,0.,12.0
1986-01-25 15:31:18.880 ,0,0,0.,12.0,0.,12.0,0.,12.0,0.,12.0
1986-01-25 15:31:30.880 ,0,0,0.,12.0,0.,12.0,0.,12.0,0.,12.0
1986-01-25 15:31:42.880 ,0,0,0.,12.0,0.,12.0,0.,12.0,0.,12.0
1986-01-25 15:31:54.880 ,0,0,0.,12.0,0.,12.0,0.,12.0,0.,12.0
1986-01-25 15:32:06.880 ,0,0,0.,12.0,0.,12.0,0.,12.0,0.,12.0
1986-01-25 15:32:18.880 ,0,0,0.,12.0,0.,12.0,0.,12.0,0.,12.0
1986-01-25 15:32:30.880 ,0,0,0.,12.0,0.,12.0,0.,12.0,0.,12.0
1986-01-25 15:32:42.880 ,0,0,0.,12.0,0.,12.0,0.,12.0,0.,12.0
1986-01-25 15:32:54.880 ,1,0,0.,12.0,0.,12.0,0.,12.0,0.,12.0
1986-01-25 15:33:06.880 ,1,0,0.,12.0,0.,12.0,0.,12.0,0.,12.0
1986-01-25 15:33:18.880 ,1,0,0.,12.0,0.,12.0,0.,12.0,0.,12.0
1986-01-25 15:33:30.880 ,1,0,0.,12.0,0.,12.0,0.,12.0,0.,12.0
1986-01-25 15:33:42.880 ,2,0,0.,12.0,0.,12.0,0.,12.0,0.,12.0
1986-01-25 15:33:54.880 ,2,0,0.,12.0,0.,12.0,0.,12.0,0.,12.0
1986-01-25 15:34:06.880 ,2,0,0.,12.0,0.,12.0,0.,12.0,0.,12.0
1986-01-25 15:34:18.880 ,2,0,0.,12.0,0.,12.0,0.,12.0,0.,12.0
1986-01-25 15:34:30.880 ,3,0,0.,12.0,0.,12.0,0.,12.0,0.,12.0
1986-01-25 15:34:42.880 ,3,0,0.,12.0,0.,12.0,0.,12.0,0.,12.0
1986-01-25 15:34:54.880 ,3,0,0.,12.0,0.,12.0,0.,12.0,0.,12.0
1986-01-25 15:35:06.880 ,3,0,0.,12.0,0.,12.0,0.,12.0,0.,12.0
1986-01-25 15:35:18.880 ,4,0,0.,12.0,0.,12.0,0.,12.0,0.,12.0
1986-01-25 15:35:30.880 ,4,0,0.,12.0,0.,12.0,0.,12.0,0.,12.0
1986-01-25 15:35:42.880 ,4,0,0.,12.0,0.,12.0,0.,12.0,0.,12.0
1986-01-25 15:35:54.880 ,4,0,0.,12.0,0.,12.0,0.,12.0,0.,12.0
1986-01-25 15:36:06.880 ,5,0,0.,12.0,0.,12.0,0.,12.0,0.,12.0
1986-01-25 15:36:18.880 ,5,0,0.,12.0,0.,12.0,0.,12.0,0.,12.0
1986-01-25 15:36:30.880 ,5,0,0.,12.0,0.,12.0,0.,12.0,0.,12.0
1986-01-25 15:36:42.880 ,5,0,0.,12.0,0.,12.0,0.,12.0,0.,12.0
1986-01-25 15:36:54.880 ,6,0,0.,12.0,0.,12.0,0.,12.0,0.,12.0
1986-01-25 15:37:06.880 ,6,0,0.,12.0,0.,12.0,0.,12.0,0.,12.0
1986-01-25 15:37:18.880 ,6,0,0.,12.0,0.,12.0,0.,12.0,0.,12.0
1986-01-25 15:37:30.880 ,6,0,0.,12.0,0.,12.0,0.,12.0,0.,12.0
1986-01-25 15:37:42.880 ,7,0,0.,12.0,0.,12.0,0.,12.0,0.,12.0
1986-01-25 15:37:54.880 ,7,0,0.,12.0,0.,12.0,0.,12.0,0.,12.0
1986-01-25 15:38:06.880 ,7,0,0.,12.0,0.,12.0,0.,12.0,0.,12.0
1986-01-25 15:38:18.880 ,7,0,0.,12.0,0.,12.0,0.,12.0,0.,12.0
1986-01-25 15:38:30.880 ,7,0,0.,12.0,0.,12.0,0.,12.0,0.,12.0
1986-01-25 15:38:42.880 ,7,0,0.,12.0,0.,12.0,0.,12.0,0.,12.0
1986-01-25 15:38:54.880 ,7,0,0.,12.0,0.,12.0,0.,12.0,0.,12.0
1986-01-25 15:39:06.880 ,7,0,0.,12.0,0.,12.0,0.,12.0,0.,12.0
1986-01-25 15:39:18.880 ,6,0,0.,12.0,0.,12.0,0.,12.0,0.,12.0
1986-01-25 15:39:30.880 ,6,0,0.,12.0,0.,12.0,0.,12.0,0.,12.0
1986-01-25 15:39:42.880 ,6,0,0.,12.0,0.,12.0,0.,12.0,0.,12.0
1986-01-25 15:39:54.880 ,6,0,0.,12.0,0.,12.0,0.,12.0,0.,12.0
1986-01-25 15:40:06.880 ,5,0,0.,12.0,0.,12.0,0.,12.0,0.,12.0
1986-01-25 15:40:18.880 ,5,0,0.,12.0,0.,12.0,0.,12.0,0.,12.0
1986-01-25 15:40:30.880 ,5,0,0.,12.0,0.,12.0,0.,12.0,0.,12.0
1986-01-25 15:40:42.880 ,5,0,0.,12.0,0.,12.0,0.,12.0,0.,12.0
1986-01-25 15:40:54.880 ,4,0,0.,12.0,0.,12.0,0.,12.0,0.,12.0
1986-01-25 15:41:06.880 ,4,0,0.,12.0,0.,12.0,0.,12.0,0.,12.0
1986-01-25 15:41:18.880 ,4,0,0.,12.0,0.,12.0,0.,12.0,0.,12.0
1986-01-25 15:41:30.880 ,4,0,0.,12.0,0.,12.0,0.,12.0,0.,12.0
1986-01-25 15:41:42.880 ,3,0,0.,12.0,0.,12.0,0.,12.0,0.,12.0
1986-01-25 15:41:54.880 ,3,0,0.,12.0,0.,12.0,0.,12.0,0.,12.0
1986-01-25 15:42:06.880 ,3,0,0.,12.0,0.,12.0,0.,12.0,0.,12.0
1986-01-25 15:42:18.880 ,3,0,0.,12.0,0.,12.0,0.,12.0,0.,12.0
1986-01-25 15:42:30.880 ,2,0,0.,12.0,0.,12.0,0.,12.0,0.,12.0
1986-01-25 15:42:42.880 ,2,0,0.,12.0,0.,12.0,0.,12.0,0.,12.0
1986-01-25 15:42:54.880 ,2,0,0.,12.0,0.,12.0,0.,12.0,0.,12.0
1986-01-25 15:43:06.880 ,2,0,0.,12.0,0.,12.0,0.,12.0,0.,12.0
1986-01-25 15:43:18.880 ,1,0,0.,12.0,0.,12.0,0.,12.0,0.,12.0
1986-01-25 15:43:30.880 ,1,0,0.,12.0,0.,12.0,0.,12.0,0.,12.0
1986-01-25 15:43:42.880 ,1,0,0.,12.0,0.,12.0,0.,12.0,0.,12.0
1986-01-25 15:43:54.880 ,1,0,0.,12.0,0.,12.0,0.,12.0,0.,12.0
1986-01-25 15:44:06.880 ,0,0,0.,12.0,0.,12.0,0.,12.0,0.,12.0
1986-01-25 15:44:18.880 ,0,0,0.,12.0,0.,12.0,0.,12.0,0.,12.0
1986-01-25 15:44:30.880 ,0,0,0.,12.0,0.,12.0,0.,12.0,0.,12.0
1986-01-25 15:44:42.880 ,0,0,0.,12.0,0.,12.0,0.,12.0,0.,12.0
1986-01-25 15:44:54.880 ,0,0,0.,12.0,0.,12.0,0.,12.0,0.,12.0
1986-01-25 15:45:06.880 ,0,0,0.,12.0,0.,12.0,0.,12.0,0.,12.0
1986-01-25 15:45:18.880 ,0,0,0.,12.0,0.,12.0,0.,12.0,0.,12.0
1986-01-25 15:45:30.880 ,0,0,0.,12.0,0.,12.0,0.,12.0,0.,12.0
1986-01-25 15:45:42.880 ,1,0,0.,12.0,0.,12.0,0.,12.0,0.,12.0
1986-01-25 15:45:54.880 ,1,0,0.,12.0,0.,12.0,0.,12.0,0.,12.0
1986-01-25 15:46:06.880 ,1,0,0.,12.0,0.,12.0,0.,12.0,0.,12.0
1986-01-25 15:46:18.880 ,1,0,0.,12.0,0.,12.0,0.,12.0,0.,12.0
1986-01-25 15:46:30.880 ,2,0,0.,12.0,0.,12.0,0.,12.0,0.,12.0
1986-01-25 15:46:42.880 ,2,0,0.,12.0,0.,12.0,0.,12.0,0.,12.0
1986-01-25 15:46:54.880 ,2,0,0.,12.0,0.,12.0,0.,12.0,0.,12.0
1986-01-25 15:47:06.880 ,2,0,0.,12.0,0.,12.0,0.,12.0,0.,12.0
1986-01-25 15:47:18.880 ,3,0,0.,12.0,0.,12.0,0.,12.0,0.,12.0
1986-01-25 15:47:30.880 ,3,0,0.,12.0,0.,12.0,0.,12.0,0.,12.0
1986-01-25 15:47:42.880 ,3,0,0.,12.0,1.,12.0,0.,12.0,0.,12.0
1986-01-25 15:47:54.880 ,3,0,0.,12.0,0.,12.0,0.,12.0,0.,12.0
1986-01-25 15:48:06.880 ,4,0,0.,12.0,0.,12.0,0.,12.0,0.,12.0
1986-01-25 15:48:18.880 ,4,0,0.,12.0,0.,12.0,0.,12.0,0.,12.0
1986-01-25 15:48:30.880 ,4,0,0.,12.0,0.,12.0,0.,12.0,0.,12.0
1986-01-25 15:48:42.880 ,4,0,0.,12.0,0.,12.0,0.,12.0,0.,12.0
1986-01-25 15:48:54.880 ,5,0,0.,12.0,0.,12.0,0.,12.0,0.,12.0
1986-01-25 15:49:06.880 ,5,0,0.,12.0,0.,12.0,0.,12.0,0.,12.0
1986-01-25 15:49:18.880 ,5,0,0.,12.0,0.,12.0,0.,12.0,0.,12.0
1986-01-25 15:49:30.880 ,5,0,0.,12.0,0.,12.0,0.,12.0,0.,12.0
1986-01-25 15:49:42.880 ,6,0,0.,12.0,0.,12.0,0.,12.0,0.,12.0
1986-01-25 15:49:54.880 ,6,0,0.,12.0,0.,12.0,0.,12.0,0.,12.0
1986-01-25 15:50:06.880 ,6,0,0.,12.0,0.,12.0,0.,12.0,0.,12.0
1986-01-25 15:50:18.880 ,6,0,0.,12.0,0.,12.0,0.,12.0,0.,12.0
1986-01-25 15:50:30.880 ,7,0,0.,12.0,0.,12.0,0.,12.0,0.,12.0
1986-01-25 15:50:42.880 ,7,0,0.,12.0,0.,12.0,0.,12.0,0.,12.0
1986-01-25 15:50:54.880 ,7,0,0.,12.0,0.,12.0,0.,12.0,0.,12.0
1986-01-25 15:51:06.880 ,7,0,0.,12.0,0.,12.0,0.,12.0,0.,12.0
1986-01-25 15:51:18.880 ,7,0,0.,12.0,0.,12.0,0.,12.0,0.,12.0
1986-01-25 15:51:30.880 ,7,0,0.,12.0,0.,12.0,0.,12.0,0.,12.0
1986-01-25 15:51:42.880 ,7,0,0.,12.0,0.,12.0,0.,12.0,0.,12.0
1986-01-25 15:51:54.880 ,7,0,0.,12.0,0.,12.0,0.,12.0,0.,12.0
1986-01-25 15:52:06.880 ,6,0,0.,12.0,0.,12.0,0.,12.0,0.,12.0
1986-01-25 15:52:18.880 ,6,0,0.,12.0,0.,12.0,0.,12.0,0.,12.0
1986-01-25 15:52:30.880 ,6,0,0.,12.0,0.,12.0,0.,12.0,0.,12.0
1986-01-25 15:52:42.880 ,6,0,0.,12.0,0.,12.0,0.,12.0,0.,12.0
1986-01-25 15:52:54.880 ,5,0,0.,12.0,0.,12.0,0.,12.0,0.,12.0
1986-01-25 15:53:06.880 ,5,0,0.,12.0,0.,12.0,0.,12.0,0.,12.0
1986-01-25 15:53:18.880 ,5,0,0.,12.0,0.,12.0,0.,12.0,0.,12.0
1986-01-25 15:53:30.880 ,5,0,0.,12.0,0.,12.0,0.,12.0,0.,12.0
1986-01-25 15:53:42.880 ,4,0,0.,12.0,0.,12.0,0.,12.0,0.,12.0
1986-01-25 15:53:54.880 ,4,0,0.,12.0,0.,12.0,0.,12.0,0.,12.0
1986-01-25 15:54:06.880 ,4,0,0.,12.0,0.,12.0,0.,12.0,0.,12.0
1986-01-25 15:54:18.880 ,4,0,0.,12.0,0.,12.0,0.,12.0,0.,12.0
1986-01-25 15:54:30.880 ,3,0,0.,12.0,0.,12.0,0.,12.0,0.,12.0
1986-01-25 15:54:42.880 ,3,0,0.,12.0,0.,12.0,0.,12.0,0.,12.0
1986-01-25 15:54:54.880 ,3,0,0.,12.0,0.,12.0,0.,12.0,0.,12.0
1986-01-25 15:55:06.880 ,3,0,0.,12.0,0.,12.0,0.,12.0,0.,12.0
1986-01-25 15:55:18.880 ,2,0,0.,12.0,0.,12.0,0.,12.0,0.,12.0
1986-01-25 15:55:30.880 ,2,0,0.,12.0,0.,12.0,0.,12.0,0.,12.0
1986-01-25 15:55:42.880 ,2,0,0.,12.0,0.,12.0,0.,12.0,0.,12.0
1986-01-25 15:55:54.880 ,2,0,0.,12.0,0.,12.0,0.,12.0,0.,12.0
1986-01-25 15:56:06.880 ,1,0,0.,12.0,0.,12.0,0.,12.0,0.,12.0
1986-01-25 15:56:18.880 ,1,0,0.,12.0,0.,12.0,0.,12.0,0.,12.0
1986-01-25 15:56:30.880 ,1,0,0.,12.0,0.,12.0,0.,12.0,0.,12.0
1986-01-25 15:56:42.880 ,1,0,0.,12.0,0.,12.0,0.,12.0,0.,12.0
1986-01-25 15:56:54.880 ,0,0,0.,12.0,0.,12.0,0.,12.0,0.,12.0
1986-01-25 15:57:06.880 ,0,0,0.,12.0,0.,12.0,0.,12.0,0.,12.0
1986-01-25 15:57:18.880 ,0,0,0.,12.0,0.,12.0,0.,12.0,0.,12.0
1986-01-25 15:57:30.880 ,0,0,0.,12.0,0.,12.0,0.,12.0,0.,12.0
1986-01-25 15:57:42.880 ,0,0,0.,12.0,0.,12.0,0.,12.0,0.,12.0
1986-01-25 15:57:54.880 ,0,0,0.,12.0,0.,12.0,0.,12.0,0.,12.0
1986-01-25 15:58:06.880 ,0,0,0.,12.0,0.,12.0,0.,12.0,0.,12.0
1986-01-25 15:58:18.880 ,0,0,0.,12.0,0.,12.0,0.,12.0,0.,12.0
1986-01-25 15:58:30.880 ,1,0,0.,12.0,0.,12.0,0.,12.0,0.,12.0
1986-01-25 15:58:42.880 ,1,0,0.,12.0,0.,12.0,0.,12.0,0.,12.0
1986-01-25 15:58:54.880 ,1,0,0.,12.0,0.,12.0,0.,12.0,0.,12.0
1986-01-25 15:59:06.880 ,1,0,0.,12.0,0.,12.0,0.,12.0,0.,12.0
1986-01-25 15:59:18.880 ,2,0,0.,12.0,0.,12.0,0.,12.0,0.,12.0
1986-01-25 15:59:30.880 ,2,0,0.,12.0,0.,12.0,0.,12.0,0.,12.0
1986-01-25 15:59:42.880 ,2,0,0.,12.0,0.,12.0,0.,12.0,0.,12.0
1986-01-25 15:59:54.880 ,2,0,0.,12.0,0.,12.0,0.,12.0,0.,12.0
1986-01-25 16:00:06.880 ,3,0,0.,12.0,0.,12.0,0.,12.0,0.,12.0
1986-01-25 16:00:18.880 ,3,0,0.,12.0,0.,12.0,0.,12.0,0.,12.0
1986-01-25 16:00:30.880 ,3,0,0.,12.0,0.,12.0,0.,12.0,0.,12.0
1986-01-25 16:00:42.880 ,3,0,0.,12.0,0.,12.0,0.,12.0,0.,12.0
1986-01-25 16:00:54.880 ,4,0,0.,12.0,0.,12.0,0.,12.0,0.,12.0
1986-01-25 16:01:06.880 ,4,0,0.,12.0,0.,12.0,0.,12.0,0.,12.0
1986-01-25 16:01:18.880 ,4,0,0.,12.0,0.,12.0,0.,12.0,0.,12.0
1986-01-25 16:01:30.880 ,4,0,0.,12.0,0.,12.0,0.,12.0,0.,12.0
1986-01-25 16:01:42.880 ,5,0,0.,12.0,0.,12.0,0.,12.0,0.,12.0
1986-01-25 16:01:54.880 ,5,0,0.,12.0,0.,12.0,0.,12.0,0.,12.0
1986-01-25 16:02:06.880 ,5,0,0.,12.0,0.,12.0,0.,12.0,0.,12.0
1986-01-25 16:02:18.880 ,5,0,0.,12.0,0.,12.0,0.,12.0,0.,12.0
1986-01-25 16:02:30.870 ,6,0,,0,,0,,0,,0
1986-01-25 16:02:42.870 ,6,0,0.,12.0,0.,12.0,0.,12.0,0.,12.0
1986-01-25 16:02:54.870 ,6,0,0.,12.0,0.,12.0,0.,12.0,0.,12.0
1986-01-25 16:03:06.870 ,6,0,0.,12.0,0.,12.0,0.,12.0,0.,12.0
1986-01-25 16:03:18.870 ,7,0,0.,12.0,0.,12.0,0.,12.0,0.,12.0
1986-01-25 16:03:30.870 ,7,0,0.,12.0,0.,12.0,0.,12.0,0.,12.0
1986-01-25 16:03:42.870 ,0,0,0.,12.0,0.,12.0,0.,12.0,0.,12.0
1986-01-25 16:03:54.870 ,0,0,0.,12.0,0.,12.0,0.,12.0,0.,12.0
1986-01-25 16:04:41.070 ,0,0,,0,,0,,0,,0
1986-01-25 16:04:53.070 ,0,0,0.,12.0,0.,12.0,0.,12.0,0.,12.0
1986-01-25 16:05:46.470 ,0,0,0.,12.0,0.,12.0,0.,12.0,0.,12.0
1986-01-25 16:05:58.470 ,0,0,0.,12.0,0.,12.0,0.,12.0,0.,12.0
1986-01-25 16:06:06.870 ,0,0,0.,12.0,0.,12.0,0.,12.0,0.,12.0
1986-01-25 16:06:18.870 ,0,0,0.,12.0,0.,12.0,0.,12.0,0.,12.0
1986-01-25 16:06:30.870 ,4,0,0.,12.0,0.,12.0,0.,12.0,0.,12.0
1986-01-25 16:06:42.870 ,4,0,0.,12.0,0.,12.0,0.,12.0,0.,12.0
1986-01-25 16:06:54.870 ,4,0,0.,12.0,0.,12.0,0.,12.0,0.,12.0
1986-01-25 16:07:06.870 ,4,0,0.,12.0,0.,12.0,0.,12.0,0.,12.0
1986-01-25 16:07:18.870 ,3,0,0.,12.0,0.,12.0,0.,12.0,0.,12.0
1986-01-25 16:07:30.870 ,3,0,0.,12.0,0.,12.0,0.,12.0,0.,12.0
1986-01-25 16:07:42.870 ,3,0,0.,12.0,0.,12.0,0.,12.0,0.,12.0
1986-01-25 16:07:54.870 ,3,0,0.,12.0,0.,12.0,0.,12.0,0.,12.0
1986-01-25 16:08:06.870 ,2,0,0.,12.0,0.,12.0,0.,12.0,0.,12.0
1986-01-25 16:08:18.870 ,2,0,0.,12.0,0.,12.0,0.,12.0,0.,12.0
1986-01-25 16:08:30.870 ,2,0,0.,12.0,0.,12.0,0.,12.0,0.,12.0
1986-01-25 16:08:42.870 ,2,0,0.,12.0,0.,12.0,0.,12.0,0.,12.0
1986-01-25 16:08:54.870 ,1,0,0.,12.0,1.,12.0,0.,12.0,0.,12.0
1986-01-25 16:09:06.870 ,1,0,0.,12.0,0.,12.0,0.,12.0,0.,12.0
1986-01-25 16:09:18.870 ,1,0,0.,12.0,0.,12.0,0.,12.0,0.,12.0
1986-01-25 16:09:30.870 ,1,0,0.,12.0,0.,12.0,0.,12.0,0.,12.0
1986-01-25 16:09:42.870 ,0,0,0.,12.0,0.,12.0,0.,12.0,0.,12.0
1986-01-25 16:09:54.870 ,0,0,0.,12.0,0.,12.0,0.,12.0,0.,12.0
1986-01-25 16:10:06.870 ,0,0,0.,12.0,0.,12.0,0.,12.0,0.,12.0
1986-01-25 16:10:18.870 ,0,0,0.,12.0,0.,12.0,0.,12.0,0.,12.0
1986-01-25 16:10:30.870 ,0,0,0.,12.0,0.,12.0,0.,12.0,0.,12.0
1986-01-25 16:10:42.870 ,0,0,0.,12.0,0.,12.0,0.,12.0,0.,12.0
1986-01-25 16:10:54.870 ,0,0,0.,12.0,0.,12.0,0.,12.0,0.,12.0
1986-01-25 16:11:06.870 ,0,0,0.,12.0,0.,12.0,0.,12.0,0.,12.0
1986-01-25 16:11:18.870 ,1,0,0.,12.0,0.,12.0,0.,12.0,0.,12.0
1986-01-25 16:11:30.870 ,1,0,0.,12.0,0.,12.0,0.,12.0,0.,12.0
1986-01-25 16:11:42.870 ,1,0,0.,12.0,0.,12.0,0.,12.0,0.,12.0
1986-01-25 16:11:54.870 ,1,0,0.,12.0,0.,12.0,0.,12.0,0.,12.0
1986-01-25 16:12:06.870 ,2,0,0.,12.0,0.,12.0,0.,12.0,0.,12.0
1986-01-25 16:12:18.870 ,2,0,0.,12.0,0.,12.0,0.,12.0,0.,12.0
1986-01-25 16:12:30.870 ,2,0,0.,12.0,0.,12.0,0.,12.0,0.,12.0
1986-01-25 16:12:42.870 ,2,0,0.,12.0,0.,12.0,0.,12.0,0.,12.0
1986-01-25 16:12:54.870 ,3,0,0.,12.0,0.,12.0,0.,12.0,0.,12.0
1986-01-25 16:13:06.870 ,3,0,0.,12.0,0.,12.0,0.,12.0,0.,12.0
1986-01-25 16:13:18.870 ,0,0,,0,,0,,0,,0
1986-01-25 16:13:30.870 ,0,0,,0,,0,,0,,0
1986-01-25 16:13:45.270 ,0,0,0.,12.0,0.,12.0,0.,12.0,0.,12.0
1986-01-25 16:13:57.270 ,0,0,,0,,0,,0,,0
1986-01-25 16:14:06.870 ,0,0,835584.,12.0,65536.,12.0,29.,12.0,1568.,12.0
1986-01-25 16:14:18.870 ,0,0,0.,12.0,0.,12.0,0.,12.0,0.,12.0
1986-01-25 16:14:30.870 ,5,0,40960.,12.0,0.,12.0,0.,12.0,0.,12.0
1986-01-25 16:14:42.870 ,5,0,0.,12.0,0.,12.0,0.,12.0,0.,12.0
1986-01-25 16:14:54.870 ,5,0,0.,12.0,0.,12.0,0.,12.0,0.,12.0
1986-01-25 16:15:06.870 ,5,0,0.,12.0,0.,12.0,0.,12.0,0.,12.0
1986-01-25 16:15:18.870 ,6,0,0.,12.0,0.,12.0,0.,12.0,0.,12.0
1986-01-25 16:15:30.870 ,6,0,0.,12.0,0.,12.0,0.,12.0,0.,12.0
1986-01-25 16:15:42.870 ,0,0,0.,12.0,0.,12.0,0.,12.0,0.,12.0
1986-01-25 16:15:54.870 ,0,0,,0,,0,,0,,0
1986-01-25 16:16:09.870 ,0,0,0.,12.0,0.,12.0,0.,12.0,0.,12.0
1986-01-25 16:16:21.870 ,0,0,0.,12.0,0.,12.0,0.,12.0,0.,12.0
1986-01-25 16:16:30.870 ,0,0,,0,,0,,0,,0
1986-01-25 16:16:42.870 ,0,0,0.,12.0,0.,12.0,0.,12.0,0.,12.0
1986-01-25 16:16:54.870 ,7,0,0.,12.0,0.,12.0,0.,12.0,0.,12.0
1986-01-25 16:17:06.870 ,7,0,0.,12.0,0.,12.0,0.,12.0,0.,12.0
1986-01-25 16:17:18.870 ,7,0,0.,12.0,0.,12.0,0.,12.0,0.,12.0
1986-01-25 16:17:30.870 ,7,0,0.,12.0,0.,12.0,0.,12.0,0.,12.0
1986-01-25 16:17:42.870 ,6,0,0.,12.0,0.,12.0,0.,12.0,0.,12.0
1986-01-25 16:17:54.870 ,6,0,0.,12.0,0.,12.0,0.,12.0,0.,12.0
1986-01-25 16:18:06.870 ,6,0,0.,12.0,0.,12.0,0.,12.0,0.,12.0
1986-01-25 16:18:18.870 ,6,0,0.,12.0,0.,12.0,0.,12.0,0.,12.0
1986-01-25 16:18:30.870 ,5,0,0.,12.0,0.,12.0,0.,12.0,0.,12.0
1986-01-25 16:18:42.870 ,5,0,0.,12.0,0.,12.0,0.,12.0,0.,12.0
1986-01-25 16:18:54.870 ,5,0,0.,12.0,0.,12.0,0.,12.0,0.,12.0
1986-01-25 16:19:06.870 ,5,0,0.,12.0,0.,12.0,0.,12.0,0.,12.0